Back to catalog

CZ-6A DEB

AlivePO
NORAD 60668·DEBRIS·🇨🇳 China

Launched Aug 6, 2024 from Taiyuan Satellite Launch Center

Loading…

Next Passes (next 24 hours)

TLE

FreshSource: Space-Track

Epoch: Sep 14, 2026, 09:47 UTC

1 60668U 24140BV  26257.40818673  .00002226  00000-0  61116-3 0  9996
2 60668  88.9790 259.8598 0074155 287.5745  71.7368 14.45161615110463

Track CZ-6A DEB in real time with AllMySat

Download on the App Store